FENGYUN 1C DEB, 30356

Orbit data source: Space-Track

FENGYUN 1C DEB, 30356 is space debris in SSO originally from a launch on Mon, 10 May 1999 UTC launched from the Taiyaun Space Center, China (TSC). Fengyun 1C debris stems from the Chinese weather satellite Fengyun-1C, which was intentionally destroyed by a Chinese anti-satellite missile in 2007. This event dramatically increased the amount of space debris, with thousands of trackable fragments posing hazards to satellites and human spaceflight. The Fengyun 1C debris cloud has become a focal point in discussions about space sustainability and the need for international regulations to prevent the creation of new debris.

Loading next visibility...
Identifier
30356, 1999-025ABT
Orbit
SSO
Country
Flag of CNCN / PRC
Related business
Manufacturer
Unknown
Mission
Spacecraft
Bus & Motor
Unknown
Mass
Unknown
Launch date (UTC)
1999-05-10 (27 years ago)
Launch vehicle
Unknown
Launch site
Taiyaun Space Center, China (TSC)
Object type
Payload
Rocket body
Debris
Shape & HBR
Unknown shape, 0.1 m
Radar Cross Section
Medium (>0.1 m² and <1 m²)

Expand to show TLE details & history
Last TLE update: 1 day ago

TLE from 1 day ago
0 FENGYUN 1C DEB
1 30356U 99025ABT 26207.45099623  .00001262  00000-0  68257-3 0  9999
2 30356  98.6913 201.1830 0053123   6.7795 147.0777 14.13597194  1927
Epoch: 2026-07-26T10:49Z
TLE epoch observation values (Epoch: 2026-07-26T10:49:26.074Z)
Latitude
25.52744°
Longitude
-81.1599°
Altitude
882.458 km
Speed
7.397 km/s
True Right ascension
01h 41m 23s
True Declination
25° 23' 47"
Sunlit
Object was in daylight at epoch
Visualization orbit readout
Latitude
Unknown
Longitude
Unknown
Altitude
Unknown
Speed
Unknown
Apparent Right ascension
Unknown
Apparent Declination
Unknown
Sunlit
N/A
Visualization observer readout
Local Sidereal Time
00:53:30
Azimuth
Unknown
Elevation
Unknown
Doppler factor
Unknown
Orbital elements
Apogee altitude
882.622 km
Perigee altitude
805.887 km
Semi-major axis
7,222.391 km
Eccentricity
0.00531
Inclination
98.6913°
RAAN
201.183°
Arg. of periapsis
6.7795°
True anomaly
147.40672°
Mean anomaly
147.0777°
Eccentric anomaly
147.24239°
Mean motion
3.53608 °/min
Orbital period
101.81 mins
BSTAR
0.00068257
Loading maneuver chart data...
Computing Atmospheric mass density...
Loading historical data...
Loading historical data...
Loading historical data...
Loading historical data...
Loading historical data...
Loading historical data...
Loading historical data...

Documentation

Showing up to 5 results
|